STARLINK-11640, 63314

Orbit data source: Space-Track

STARLINK-11640, 63314 is a payload satellite owned by SpaceX/Seattle (US) in LEO that was launched on Tue, 18 Mar 2025 UTC via an FALCON 9 launch vehicle from the Air Force Eastern Test Range (AFETR). Payload-class satellites include a variety of spacecraft equipped with specific instruments for various scientific and technological missions. These include communications satellites like Starlink; space stations such as the ISS; scientific satellites like the Hubble; Earth observation satellites from companies like Planet Labs, Umbra, and HawkEye 360; GPS; miniature CubeSats for education and research; and military/defense satellites.

Loading next visibility...
Identifier
63314, 2025-057H
Orbit
LEO
Last TLE update
2 days ago
Origin
Manufacturer
SpaceX/Seattle
Mission
Operational spacecraft
Bus & Motor
STARLINK V2M, Unknown motor
Mass
730 kg wet, ~700 kg dry
Launch date (UTC)
2025-03-18 (1 month ago)
Launch vehicle
FALCON 9
Launch site
Air Force Eastern Test Range (AFETR)
Object type
Payload
Rocket body
Debris
Shape & HBR
Unknown
Radar Cross Section
Large (>1 m²)

Expand to show TLE details & history

TLE from 2 days ago
0 STARLINK-11640
1 63314U 25057H   25118.87277787  .00003435  00000-0  30265-4 0  9991
2 63314  42.9969   2.2745 0002094 277.0608  83.0022 15.70831471  7664
Epoch: 2025-04-28T20:56Z
Definitive object data (Epoch: 2025-04-28T20:56:48.007Z)
Latitude
Longitude
-169.00609°
Altitude
356.119 km
Speed
7.697 km/s
True Right ascension
00h 09m 05s
True Declination
0° 00' 00"
Sunlit
Object was in daylight at TLE epoch
Visualization TLE readout
Latitude
43.10059°
Longitude
-92.30886°
Altitude
360.907 km
Speed
7.698 km/s
Apparent Right ascension
06h 08m 51s
Apparent Declination
3° 03' 40"
Sunlit
Object is in daylight
Visualization observer readout
Local Sidereal Time
19:02:09
Azimuth
19.102° NNE
Elevation
-45.317°
Doppler factor
1
Orbital elements
Apogee altitude
359.912 km
Perigee altitude
357.091 km
Semi-major axis
6,736.639 km
Eccentricity
0.0002094
Inclination
42.9969°
RAAN
2.2745°
Arg. of periapsis
277.0608°
True anomaly
83.02602°
Mean anomaly
83.0022°
Eccentric anomaly
83.01411°
Mean motion
3.92535 °/min
BSTAR
0.000030265
Orbital period
91.71 mins
Loading maneuver chart data...
Loading SW <> Apogee altitude chart data...
Loading historical data...
Loading historical data...
Loading historical data...
Loading historical data...
Loading historical data...
Loading historical data...
Loading historical data...

STARLINK-11640 Visibility forecast

Observer location: undefined°, undefined°

Span
Click to sort rows by Start time (UTC) header in descending order
Start Az.
Max El. time (UTC)
Max El. Az.
Max El.
End time (UTC)
End Az.
5 mins2025-04-30 18:55:58.629Z215.529° SW2025-04-30 18:58:58.629Z132.22° SE26.473°2025-04-30 19:00:58.629Z88.354° E
4 mins2025-04-30 20:32:58.629Z273.274° WNW2025-04-30 20:34:58.629Z29.902° NE38.232°2025-04-30 20:36:58.629Z67.133° ENE
4 mins2025-04-30 23:45:58.629Z275.398° WNW2025-04-30 23:46:58.629Z221.681° SW42.554°2025-04-30 23:49:58.629Z118.653° SE
|